Tallahassee, FL

7:33 PM EST on February 18, 2018 (GMT -0500)
Tallahassee Regional

Weather History for KTLH - July, 2012

Change the Weather History Date:

Monday, July 16, 2012

  Actual Average Record
Temperature  
Mean Temperature 85 °F 82 °F  
Max Temperature 96 °F 92 °F 102 °F (2000)
Min Temperature 74 °F 72 °F 64 °F (1896)
Degree Days  
Heating Degree Days 0    
Month to date heating degree days 0  
Since 1 June heating degree days 0  
Since 1 July heating degree days 0  
Cooling Degree Days 20    
Month to date cooling degree days 300  
Year to date cooling degree days 1532  
Since 1 June cooling degree days 755  
Growing Degree Days 34 (Base 50)    
Moisture  
Dew Point 71 °F    
Average Humidity 64    
Maximum Humidity 87    
Minimum Humidity 41    
Precipitation  
Precipitation 0.00 in 0.22 in 3.15 in (1969)
Month to date precipitation 2.21 3.64  
Year to date precipitation 32.25 33.03  
Sea Level Pressure  
Sea Level Pressure 30.03 in    
Wind  
Wind Speed 4 mph (ENE)    
Max Wind Speed 14 mph    
Max Gust Speed 16 mph    
Visibility 10 miles    
Events Thunderstorm    
T = Trace of Precipitation, MM = Missing Value Source: NWS Daily Summary

Daily Weather History Graph

Daily Weather History Graph

Search for Another Location

Airport or City:

Trip Planner

Search our weather history database for the weather conditions in past years. The results will help you decide how hot, cold, wet, or windy it might be!

Date:

Astronomy

Jul. 16, 2012 Rise Set
Actual Time 6:46 AM EDT 8:40 PM EDT
Civil Twilight 6:19 AM EDT 9:07 PM EDT
Nautical Twilight 5:46 AM EDT 9:39 PM EDT
Astronomical Twilight 5:12 AM EDT 10:14 PM EDT
Moon 4:30 AM EDT (7/16) 6:44 PM EDT (7/16)
Length of Visible Light 14h 47m
Length of Day
13h 53m
Waning Crescent, 6% of the Moon is Illuminated
Jul 16
Waning Crescent
Jul 19
New
Jul 26
First Quarter
Aug 1
Full
Aug 9
Last Quarter

Hourly Weather History & Observations

Time (EDT) Temp. Heat Index Dew Point Humidity Pressure Visibility Wind Dir Wind Speed Gust Speed Precip Events Conditions
12:53 AM 80.1 °F 83.8 °F 72.0 °F 76% 30.08 in 10.0 mi East 4.6 mph - N/A   Partly Cloudy
1:53 AM 80.1 °F 83.8 °F 72.0 °F 76% 30.07 in 10.0 mi East 4.6 mph - N/A   Partly Cloudy
2:53 AM 79.0 °F - 72.0 °F 79% 30.06 in 10.0 mi East 4.6 mph - N/A   Clear
3:53 AM 75.9 °F - 72.0 °F 87% 30.04 in 10.0 mi Calm Calm - N/A   Clear
4:53 AM 77.0 °F - 72.0 °F 84% 30.03 in 10.0 mi Calm Calm - N/A   Clear
5:53 AM 75.9 °F - 72.0 °F 87% 30.05 in 10.0 mi Calm Calm - N/A   Mostly Cloudy
6:28 AM 75.2 °F - 71.6 °F 89% 30.06 in 10.0 mi Calm Calm - 0.01 in   Scattered Clouds
6:53 AM 75.9 °F - 72.0 °F 87% 30.06 in 10.0 mi Calm Calm - 0.01 in   Scattered Clouds
7:12 AM 75.2 °F - 71.6 °F 89% 30.07 in 10.0 mi Calm Calm - N/A   Mostly Cloudy
7:20 AM 75.2 °F - 71.6 °F 89% 30.07 in 10.0 mi Calm Calm - N/A   Scattered Clouds
7:53 AM 77.0 °F - 72.0 °F 84% 30.08 in 10.0 mi Calm Calm - 0.01 in   Scattered Clouds
8:53 AM 80.1 °F 83.8 °F 72.0 °F 76% 30.09 in 10.0 mi ESE 3.5 mph - N/A   Partly Cloudy
9:53 AM 82.9 °F 88.0 °F 72.0 °F 69% 30.09 in 10.0 mi Calm Calm - N/A   Partly Cloudy
10:53 AM 87.1 °F 93.6 °F 72.0 °F 61% 30.08 in 10.0 mi NE 8.1 mph - N/A   Partly Cloudy
11:53 AM 90.0 °F 96.9 °F 72.0 °F 55% 30.07 in 10.0 mi Variable 6.9 mph - N/A   Mostly Cloudy
12:53 PM 89.1 °F 94.1 °F 70.0 °F 53% 30.06 in 10.0 mi NNE 8.1 mph - N/A   Scattered Clouds
1:53 PM 91.9 °F 97.4 °F 70.0 °F 48% 30.03 in 10.0 mi NNE 6.9 mph 16.1 mph N/A   Mostly Cloudy
2:53 PM 93.0 °F 97.9 °F 69.1 °F 45% 30.00 in 10.0 mi Variable 6.9 mph - N/A   Mostly Cloudy
3:53 PM 93.0 °F 96.4 °F 66.9 °F 42% 29.98 in 10.0 mi ENE 6.9 mph - N/A   Scattered Clouds
4:53 PM 95.0 °F 99.5 °F 68.0 °F 41% 29.96 in 10.0 mi NNE 4.6 mph - N/A   Scattered Clouds
5:53 PM 91.9 °F 94.5 °F 66.0 °F 42% 29.94 in 10.0 mi Calm Calm - N/A   Partly Cloudy
6:53 PM 93.9 °F 97.0 °F 66.0 °F 40% 29.92 in 10.0 mi North 5.8 mph - N/A   Partly Cloudy
7:53 PM 93.0 °F 95.9 °F 66.0 °F 41% 29.94 in 10.0 mi NE 3.5 mph - N/A   Partly Cloudy
8:53 PM 87.1 °F 94.5 °F 73.0 °F 63% 29.96 in 10.0 mi SSW 5.8 mph - N/A   Partly Cloudy
9:53 PM 84.0 °F 90.2 °F 73.0 °F 69% 29.95 in 10.0 mi WSW 4.6 mph - N/A   Partly Cloudy
10:53 PM 82.0 °F 87.9 °F 73.9 °F 76% 29.98 in 10.0 mi SSW 4.6 mph - N/A   Partly Cloudy
11:42 PM 80.6 °F 85.4 °F 73.4 °F 79% 30.00 in 10.0 mi SW 5.8 mph - N/A Thunderstorm Thunderstorm
11:53 PM 81.0 °F 86.2 °F 73.9 °F 79% 30.00 in 10.0 mi SW 4.6 mph - N/A Thunderstorm Thunderstorm